STARLINK-34556, 64733

Orbit data source: Space-Track

STARLINK-34556, 64733 is a payload satellite owned by SpaceX/Seattle (US) in LEO that was launched on Wed, 02 Jul 2025 UTC via an FALCON 9 launch vehicle from the Air Force Eastern Test Range (AFETR). Payload-class satellites include a variety of spacecraft equipped with specific instruments for various scientific and technological missions. These include communications satellites like Starlink; space stations such as the ISS; scientific satellites like the Hubble; Earth observation satellites from companies like Planet Labs, Umbra, and HawkEye 360; GPS; miniature CubeSats for education and research; and military/defense satellites.

Not visible in the next 10 days
Identifier
64733, 2025-144K
Orbit
LEO
Last TLE update
14 hours ago
Origin
Manufacturer
SpaceX/Seattle
Mission
Operational spacecraft
Bus & Motor
STARLINK V2MO, Unknown motor
Mass
575 kg wet, ~530 kg dry
Launch date (UTC)
2025-07-02 (1 week ago)
Launch vehicle
FALCON 9
Launch site
Air Force Eastern Test Range (AFETR)
Object type
Payload
Rocket body
Debris
Shape & HBR
Unknown
Radar Cross Section
RCS unknown

Expand to show TLE details & history

TLE from 14 hours ago
0 STARLINK-34556
1 64733U 25144K   25191.66668981 -.01147202  00000-0 -47164-2 0  9990
2 64733  53.1538 231.7457 0000815  80.0291   3.4234 15.87938122  2579
Epoch: 2025-07-10T16:00Z
TLE epoch observation values (Epoch: 2025-07-10T16:00:01.999Z)
Latitude
52.81324°
Longitude
142.06087°
Altitude
313.953 km
Speed
7.727 km/s
True Right ascension
20h 43m 35s
True Declination
52° 38' 11"
Sunlit
Object was in daylight at epoch
Visualization orbit readout
Latitude
-49.04129°
Longitude
0.71684°
Altitude
329.667 km
Speed
7.71 km/s
Apparent Right ascension
08h 53m 31s
Apparent Declination
-49° 46' 39"
Sunlit
Object is in daylight
Visualization observer readout
Local Sidereal Time
18:45:17
Azimuth
235.627° WSW
Elevation
-65.464°
Doppler factor
1
Orbital elements
Apogee altitude
308.873 km
Perigee altitude
307.783 km
Semi-major axis
6,686.465 km
Eccentricity
0.00008
Inclination
53.1538°
RAAN
231.7457°
Arg. of periapsis
80.0291°
True anomaly
Unknown
Mean anomaly
3.4234°
Eccentric anomaly
Unknown
Mean motion
3.96961 °/min
Orbital period
90.69 mins
BSTAR
-0.0047164
Loading maneuver chart data...
Loading SW <> Apogee altitude chart data...
Loading historical data...
Loading historical data...
Loading historical data...
Loading historical data...
Loading historical data...
Loading historical data...
Loading historical data...

STARLINK-34556 Visibility

Observer location: undefined°, undefined°

STARLINK-34556 is likely not visible in the next few days
Span
Click to sort rows by Start time (UTC) header in descending order
Start Az.
Max El. time (UTC)
Max El. Az.
Max El.
End time (UTC)
End Az.
|